User: anonymous   Login
Location: Camps Bay
(33.9517°S, 18.3844°E)
Time: 17:55:00
(UTC+00:00)
Language:

ADEOS II - Orbit

View from above orbital plane
View from above orbital plane
View from above satellite
View from above satellite

Ground track
Ground track

The orbit data is extracted from the following two-line orbital elements,

1 27597U 02056A   20100.14263034  .00000016  00000-0  23973-4 0  9994
2 27597  98.5134  49.4963 0001224 131.4417 228.6869 14.27440134901929
Epoch (UTC): 09 April 2020 03:25:23
Eccentricity: 0.0001224
inclination: 98.5134°
perigee height: 799 km
apogee height: 801 km
right ascension of ascending node: 49.4963°
argument of perigee: 131.4417°
revolutions per day: 14.27440134
mean anomaly at epoch: 228.6869°
orbit number at epoch: 90192

The dashed part of the orbit path shows where the satellite is in the earth's shadow,  

DLR